CAPE
5 5 1 2 0 0 1 1 1 1 1 0 0 1 1 1 0 0 0 0 0 0 0 0 0 0 0 0 0 0 0 0 0 0 0 0 0 0 0 0 0 0 0 0 0
4 4 2 1 4 3 1 0 1 1 1 1 0 1 1 1 0 0 0 0 0 0 0 0 0 0 0 0 0 0 0 0 0 0 0 0 0 0 0 0 0 0 0 0 0
2 3 0 0 1 1 0 0 1 1 1 0 0 2 2 0 0 0 0 0 0 0 0 0 0 0 0 0 0 0 0 0 0 0 0 0 0 0 0 0 0 0 0 0 0
0 0 1 1 2 1 0 0 1 1 1 1 0 1 1 0 0 0 0 0 0 0 0 0 0 0 0 0 0 0 0 0 0 0 0 0 0 0 0 0 0 0 0 0 0
0 2 3 1 1 1 0 0 0 0 1 1 0 2 0 0 0 0 0 0 0 0 0 0 0 0 0 0 0 0 0 0 0 0 0 0 0 0 0 0 0 0 0 0 0
4 1 2 3 1 1 0 0 0 0 0 1 2 1 0 0 0 0 0 0 0 0 0 0 0 0 0 0 0 0 0 0 0 0 0 0 0 0 0 0 0 0 0 0 0
3 3 3 2 1 1 0 1 1 2 0 0 1 0 0 0 0 0 0 0 0 0 0 0 0 0 0 0 0 0 0 0 0 0 0 0 0 0 0 0 0 0 1 0 0
0 2 2 1 1 0 0 0 0 0 0 1 0 0 0 0 0 0 0 0 0 0 0 0 0 0 0 0 0 0 0 0 0 0 0 0 0 0 0 0 0 0 0 0 0
0 0 1 1 0 0 0 0 0 0 0 0 0 0 0 0 0 0 0 0 0 0 0 0 0 0 0 0 0 0 0 0 0 0 0 0 0 0 0 0 0 0 0 0 0
0 0 0 0 0 0 0 0 0 0 0 0 0 0 0 0 0 0 0 0 0 0 0 0 0 0 0 0 0 0 0 0 0 0 0 0 0 0 0 0 0 0 0 0 0
0 0 0 0 0 0 0 0 0 0 0 0 0 0 0 0 0 0 0 0 0 0 0 0 0 0 0 0 0 0 0 0 0 0 0 0 0 0 0 0 0 0 0 0 0
0 0 0 0 0 0 0 0 0 0 0 0 0 0 0 0 0 0 0 0 0 0 0 0 0 0 0 0 0 0 0 0 0 0 0 0 0 0 0 0 0 0 0 0 0
0 0 0 0 0 0 0 0 0 0 0 0 0 0 0 0 0 0 0 0 0 0 0 0 0 0 0 0 0 0 0 0 0 0 0 0 0 0 0 0 0 0 0 0 0
0 0 0 0 0 0 0 0 0 0 0 0 0 0 0 0 0 0 0 0 0 0 0 0 0 0 0 0 0 0 0 0 0 0 0 0 0 0 0 0 0 0 0 0 0
0 0 0 0 0 0 0 0 0 0 0 0 0 0 0 0 0 0 0 0 0 0 0 0 0 0 0 0 0 0 0 0 0 0 0 0 0 0 0 0 0 0 0 0 0
0 0 0 0 0 0 0 0 0 0 0 0 0 0 0 0 0 0 0 0 0 0 0 0 0 0 0 0 12 0 0 0 0 0 0 0 0 0 0 0 0 0 0 0 0
0 0 0 0 0 0 0 0 0 0 0 0 0 0 0 0 0 0 0 0 0 0 0 0 0 0 0 1 8 2 5 0 0 0 0 0 0 0 0 0 0 0 0 0 0
0 0 0 0 0 0 0 0 0 0 0 0 0 0 0 0 0 0 0 0 0 0 0 0 0 0 1 43 0 0 8 5 6 0 0 0 0 0 0 0 0 0 0 0 0
0 0 0 0 0 0 0 0 0 0 0 0 0 0 0 0 0 0 0 0 0 0 0 0 0 0 1 6 0 0 0 13 0 0 0 0 0 0 0 0 0 0 0 0 0
0 0 0 0 0 0 0 0 0 0 0 0 0 0 0 0 0 0 0 0 0 0 0 0 0 0 12 0 6 10 0 1 0 0 0 0 0 0 0 0 0 0 0 0 0
0 0 0 0 0 0 0 0 0 0 0 0 0 0 0 0 0 0 0 0 0 0 0 0 2 0 0 28 22 6 6 0 10 10 13 0 0 3 2 0 0 0 0 0 0
0 0 0 0 0 0 0 0 0 0 0 0 0 0 0 0 0 0 0 0 0 7 1 0 0 0 0 0 2 32 9 2 0 0 3 0 0 0 0 5 13 0 2 0 0
0 0 0 0 0 0 0 0 0 0 0 0 0 0 0 0 0 0 0 0 0 0 0 0 0 0 0 0 0 0 0 0 0 0 0 0 0 0 28 7 0 0 0 0 0
0 0 0 0 0 0 0 0 0 0 0 0 0 0 0 0 0 0 0 0 0 2 0 0 0 0 0 0 0 0 9 4 1 0 0 0 3 4 0 0 0 1 0 0 0
0 0 0 0 0 0 0 0 0 0 0 0 0 0 0 0 0 0 0 0 0 5 0 0 0 0 0 0 0 0 3 20 1 0 0 0 5 0 0 0 0 0 0 2 0
0 0 0 0 0 0 0 0 0 0 0 0 0 0 0 0 0 0 0 0 0 0 0 0 0 0 0 0 0 0 0 29 57 22 12 7 0 0 0 0 0 0 0 0 0
0 0 0 0 0 0 0 0 0 0 0 0 0 0 0 0 0 0 0 0 0 0 0 0 0 0 0 0 0 0 0 9 0 16 3 0 3 0 0 0 0 0 0 0 0
CIN
0 -1 -2 -2 0 0 0 0 0 0 -2 0 -1 0 0 0 0 0 0 0 0 0 0 0 0 0 0 0 0 0 0 0 0 0 0 0 0 0 0 0 0 0 0 0 0
0 0 0 0 0 0 0 0 0 0 0 0 -1 0 0 0 0 0 0 0 0 0 0 0 0 0 0 0 0 0 0 0 0 0 0 0 0 0 0 0 0 0 0 0 0
0 0 0 0 -1 0 0 0 0 0 0 0 -1 0 0 0 0 0 0 0 0 0 0 0 0 0 0 0 0 0 0 0 0 0 0 0 0 0 0 0 0 0 0 0 0
-1 0 0 0 0 0 0 0 0 0 -1 0 0 0 0 0 0 0 0 0 0 0 0 0 0 0 0 0 0 0 0 0 0 0 0 0 0 0 0 0 0 0 0 0 0
0 0 -1 0 0 0 0 0 0 -1 -1 -1 -1 0 0 0 0 0 0 0 0 0 0 0 0 0 0 0 0 0 0 0 0 0 0 0 0 0 0 0 0 0 0 0 0
0 0 0 0 0 0 0 0 0 0 0 0 0 0 0 0 0 0 0 0 0 0 0 0 0 0 0 0 0 0 0 0 0 0 0 0 0 0 0 0 0 0 0 0 0
0 0 0 0 0 0 0 0 0 0 0 -1 0 0 0 0 0 0 0 0 0 0 0 0 0 0 0 0 0 0 0 0 0 0 0 0 0 0 0 0 0 0 -6 0 0
0 0 0 0 0 0 0 0 0 0 0 0 0 0 0 0 0 0 0 0 0 0 0 0 0 0 0 0 0 0 0 0 0 0 0 0 0 0 0 0 0 0 0 0 0
0 0 0 0 0 0 0 0 0 0 0 0 0 0 0 0 0 0 0 0 0 0 0 0 0 0 0 0 0 0 0 0 0 0 0 0 0 0 0 0 0 0 0 0 0
0 0 0 0 0 0 0 0 0 0 0 0 0 0 0 0 0 0 0 0 0 0 0 0 0 0 0 0 0 0 0 0 0 0 0 0 0 0 0 0 0 0 0 0 0
0 0 0 0 0 0 0 0 0 0 0 0 0 0 0 0 0 0 0 0 0 0 0 0 0 0 0 0 0 0 0 0 0 0 0 0 0 0 0 0 0 0 0 0 0
0 0 0 0 0 0 0 0 0 0 0 0 0 0 0 0 0 0 0 0 0 0 0 0 0 0 0 0 0 0 0 0 0 0 0 0 0 0 0 0 0 0 0 0 0
0 0 0 0 0 0 0 0 0 0 0 0 0 0 0 0 0 0 0 0 0 0 0 0 0 0 0 0 0 0 0 0 0 0 0 0 0 0 0 0 0 0 0 0 0
0 0 0 0 0 0 0 0 0 0 0 0 0 0 0 0 0 0 0 0 0 0 0 0 0 0 0 0 0 0 0 0 0 0 0 0 0 0 0 0 0 0 0 0 0
0 0 0 0 0 0 0 0 0 0 0 0 0 0 0 0 0 0 0 0 0 0 0 0 0 0 0 0 0 0 0 0 0 0 0 0 0 0 0 0 0 0 0 0 0
0 0 0 0 0 0 0 0 0 0 0 0 0 0 0 0 0 0 0 0 0 0 0 0 0 0 0 0 -92 0 0 0 0 0 0 0 0 0 0 0 0 0 0 0 0
0 0 0 0 0 0 0 0 0 0 0 -1 0 0 0 0 0 0 0 0 0 0 0 0 0 0 0 -40 -78 -42 -78 -7 0 0 0 0 0 0 0 0 0 0 0 0 0
0 0 0 0 0 0 0 0 0 0 0 0 0 0 0 0 0 0 0 0 0 0 0 0 0 0 -24 -88 0 0 -59 -33 -31 0 0 0 0 0 0 0 0 0 0 0 0
0 0 0 0 0 0 0 0 0 0 0 0 0 0 0 0 0 0 0 0 0 0 0 0 -1 0 -95 -83 -12 -60 0 -81 -9 0 -1 0 0 0 0 0 0 0 0 0 0
0 0 0 0 0 0 0 0 0 0 0 0 0 0 0 0 0 0 0 0 0 0 0 0 0 0 -43 -30 -72 -64 0 -15 0 -1 -2 0 0 0 0 -30 0 0 0 0 0
0 0 0 0 0 0 0 0 0 0 0 0 0 0 0 0 0 0 0 0 0 0 0 0 -16 0 -1 -26 -20 -41 -30 -8 -27 -23 -11 0 0 -56 -38 0 0 0 -11 0 0
0 0 0 0 0 0 0 0 0 0 0 0 0 0 0 0 0 0 0 0 0 -19 -22 0 -1 0 0 0 -26 -23 -38 -54 -1 0 -29 0 0 0 0 -49 -52 -1 -7 0 0
0 0 0 0 0 0 0 0 0 0 0 0 0 0 0 0 0 0 0 0 0 -5 0 0 0 0 0 0 0 0 -2 0 0 0 0 0 0 0 -40 -36 0 0 0 0 0
0 0 0 0 0 0 0 0 0 0 0 0 0 0 0 0 0 0 0 -1 -3 -10 0 0 0 0 0 0 -6 0 -20 -30 -13 0 0 0 -12 -30 0 0 0 -39 0 0 0
0 0 0 0 0 0 0 0 0 0 0 0 0 0 0 0 0 0 0 0 0 -22 0 0 0 0 0 0 0 0 -14 -18 -9 0 0 0 -11 0 0 0 0 0 0 -91 0
0 0 0 0 0 0 0 0 0 0 0 0 0 0 0 0 0 0 0 0 0 0 0 0 0 0 0 0 0 0 0 -47 -34 -39 -25 -18 -15 0 0 0 0 0 0 0 0
0 0 0 0 0 0 0 0 0 0 0 0 0 0 0 0 0 0 0 0 0 0 0 0 0 0 0 0 0 0 0 -50 -20 -21 -12 0 -18 0 0 0 0 0 0 0 0
Wind_Speed
11 6 3 2 2 6 15 18 20 20 20 20 21 22 24 25 27 24 28 20 13 22 19 23 22 20 20 21 21 21 33 40 37 36 37 39 39 34 34 32 25 28 23 18 15
10 6 5 4 6 6 11 16 18 18 18 19 20 21 22 23 24 28 27 18 18 22 16 19 22 19 20 20 21 24 34 36 31 32 35 40 41 36 35 38 38 35 20 16 17
8 5 10 7 7 9 10 12 15 17 18 19 19 20 20 20 19 17 17 4 16 13 19 17 17 19 23 24 25 27 39 34 36 36 38 42 47 40 39 40 37 38 30 20 21
6 5 2 12 11 10 10 11 12 14 17 18 19 19 19 17 13 17 12 8 9 11 15 14 17 18 20 24 25 35 35 35 39 39 42 43 45 44 38 40 34 35 29 22 23
8 8 4 3 10 13 12 12 13 14 15 17 18 18 17 17 19 14 10 9 9 10 10 12 17 19 23 22 26 31 34 36 37 39 41 44 49 46 45 34 32 33 25 32 23
15 11 11 7 5 8 14 15 15 15 15 16 17 17 17 17 16 10 8 8 8 9 10 11 17 22 23 22 25 28 34 36 36 39 39 42 46 39 40 23 25 29 28 27 23
24 19 14 12 10 8 8 11 14 15 17 17 17 18 19 9 16 10 9 10 6 6 14 18 17 21 23 27 25 31 36 39 35 32 36 34 41 43 35 28 27 26 27 31 22
30 26 21 16 13 12 10 10 10 12 14 16 17 17 17 16 17 8 5 13 10 5 9 19 20 21 21 25 29 31 31 35 32 34 36 31 52 48 42 41 39 31 27 24 25
31 30 27 22 18 15 13 12 12 12 9 14 13 12 15 19 9 14 10 10 11 5 8 15 17 20 23 26 30 26 36 39 41 34 35 32 50 45 41 41 46 40 31 29 27
33 31 29 27 23 20 17 15 9 16 16 13 13 8 13 13 10 10 7 9 5 13 13 12 14 14 18 20 27 27 31 34 39 37 32 38 44 47 45 40 39 38 34 31 29
36 33 30 28 27 25 24 21 21 17 11 5 4 10 21 21 11 10 10 8 9 16 17 18 15 13 12 16 19 25 30 35 40 39 33 35 41 43 43 35 37 33 30 27 24
36 35 31 29 27 26 21 18 16 23 19 5 13 9 21 17 20 8 8 9 9 10 13 16 13 10 15 21 24 26 30 37 37 33 35 40 43 42 36 31 29 29 29 30 25
37 35 32 30 27 18 16 8 8 28 19 24 9 7 5 8 6 9 4 6 9 8 9 10 13 18 20 22 26 30 31 35 37 34 36 38 42 41 34 28 25 28 30 30 31
39 35 35 32 18 18 15 24 28 16 17 12 12 12 11 9 17 8 1 7 12 8 9 15 15 18 25 28 30 30 32 32 35 36 42 30 45 43 37 34 35 35 36 35 36
40 39 33 25 16 13 17 29 28 18 12 11 12 12 10 10 16 17 5 8 9 11 13 13 19 23 25 25 29 31 32 32 31 32 34 40 35 43 33 43 42 41 42 42 40
41 41 37 20 12 7 25 28 18 14 13 11 13 12 10 10 16 21 12 9 16 15 15 16 19 21 21 28 27 30 29 27 28 29 41 40 32 45 39 38 41 44 48 49 45
41 41 26 16 13 17 26 19 14 11 15 15 16 17 15 16 22 24 23 15 11 17 20 26 26 27 27 32 32 30 28 35 39 40 40 29 29 30 33 37 39 45 52 44 28
42 37 19 14 13 18 19 15 12 11 17 21 22 23 18 23 25 30 28 28 22 19 22 26 26 25 25 28 32 31 23 26 34 35 49 30 32 31 29 29 29 37 43 21 16
43 28 17 15 12 16 18 15 12 13 22 19 21 16 17 25 24 26 26 20 19 19 21 21 20 17 25 25 25 26 28 24 27 29 38 34 32 36 26 22 23 28 22 12 10
40 28 17 11 12 18 17 15 13 18 31 17 18 15 18 24 23 24 21 18 19 17 19 20 26 21 23 21 26 24 25 21 23 28 28 29 24 24 22 22 22 22 16 9 13
30 26 16 13 13 17 17 15 18 25 27 18 16 16 20 22 22 21 17 25 17 19 20 19 20 21 23 20 17 18 26 23 21 26 29 28 21 17 16 19 24 26 27 17 15
27 24 17 12 19 18 20 25 26 25 28 19 18 17 19 22 19 19 18 21 15 16 20 18 17 19 21 20 10 15 19 23 24 27 28 31 31 25 22 21 22 26 19 29 23
29 19 22 13 24 28 26 26 21 27 25 23 18 19 20 21 20 16 22 23 15 16 17 14 18 22 24 16 13 18 17 20 23 23 29 29 25 25 27 30 26 21 19 35 37
21 22 22 20 19 26 30 25 29 27 22 21 20 20 23 22 19 17 21 19 19 17 15 14 14 13 14 13 15 21 25 22 22 25 30 29 33 32 27 26 28 27 24 19 18
21 20 22 26 29 32 32 25 29 29 23 24 22 23 22 20 20 18 19 19 19 15 14 13 13 13 12 9 3 6 32 32 20 28 33 31 31 28 26 30 32 31 28 26 29
23 22 22 28 25 30 28 25 27 32 31 25 23 25 23 18 16 18 18 16 14 13 15 14 13 16 15 2 12 2 27 25 22 18 23 26 25 27 28 29 30 32 33 34 33
21 19 20 21 26 29 25 27 28 34 28 30 29 27 22 17 17 14 10 10 9 10 11 11 12 18 13 13 16 10 22 23 25 24 23 27 27 28 33 36 36 37 39 41 39
Wind_Direction
29 289 324 271 235 237 256 259 259 258 254 257 263 269 273 277 278 283 269 281 289 273 287 282 283 281 280 276 274 276 265 262 266 267 268 266 265 270 279 280 273 270 282 281 280
25 294 279 262 247 236 247 255 252 244 245 252 257 261 268 279 280 264 260 279 277 276 292 289 279 280 277 280 275 268 265 267 274 274 272 266 262 268 277 275 270 270 289 278 282
22 18 275 262 249 243 240 241 243 244 246 250 255 258 264 275 281 286 291 323 283 288 286 291 286 286 277 276 274 274 265 273 272 273 269 264 259 266 272 271 273 271 268 274 275
349 3 343 270 259 247 239 234 233 234 240 245 250 254 258 276 307 290 326 17 319 308 294 293 291 289 285 278 278 271 275 274 273 272 269 267 265 264 271 272 279 276 273 272 274
324 306 300 274 260 259 245 238 237 234 234 240 246 255 272 292 279 301 19 23 0 333 312 304 298 296 287 291 284 277 278 277 275 274 272 271 265 267 268 278 282 279 271 274 271
308 303 290 275 251 240 254 250 246 242 238 233 233 243 270 298 276 80 51 16 355 337 321 322 309 305 296 294 289 289 284 281 280 276 276 275 273 274 269 278 283 280 276 273 269
313 305 294 282 266 246 226 232 239 243 244 244 249 266 285 140 301 85 76 37 45 0 315 314 321 313 306 295 297 294 286 282 280 283 279 282 275 268 273 274 278 280 274 274 267
322 314 303 288 275 260 242 228 218 221 217 214 270 299 195 276 290 356 35 324 333 15 334 314 315 316 312 307 299 296 291 284 285 286 283 284 268 267 273 272 272 274 276 274 265
324 320 312 299 285 269 252 236 226 225 123 102 90 115 176 250 123 169 142 137 155 133 339 328 322 318 313 305 299 298 285 284 282 287 287 285 272 273 277 275 267 264 269 267 263
325 320 315 309 299 287 272 245 83 22 32 56 173 316 160 34 65 104 90 139 22 348 352 341 335 326 323 316 301 300 293 289 284 284 293 286 278 276 279 273 267 264 263 266 266
327 320 315 310 308 305 317 353 2 11 33 54 118 187 230 295 37 48 61 43 357 330 326 323 327 321 315 313 307 305 299 295 290 288 292 288 285 283 288 274 264 267 264 264 266
325 321 313 306 305 314 351 11 24 343 259 196 203 189 207 285 320 18 39 11 355 343 341 329 322 318 317 313 308 304 298 294 295 294 291 287 284 284 292 283 265 263 267 267 269
323 319 312 301 292 359 13 64 269 304 359 291 33 17 61 10 5 334 28 358 350 347 333 319 321 323 319 314 309 306 295 293 293 297 296 292 285 281 285 290 277 269 271 272 270
322 317 314 304 1 352 11 339 314 6 4 26 22 12 360 5 341 5 110 336 332 330 328 331 329 323 319 315 314 310 303 297 296 295 286 295 282 277 277 281 278 277 274 274 273
318 317 306 346 3 9 358 306 309 1 33 37 21 8 23 21 348 348 8 325 308 318 330 318 327 325 319 320 318 309 311 301 297 295 294 283 286 279 282 273 276 279 277 275 278
314 316 332 3 12 38 326 297 354 19 32 40 15 13 6 349 344 334 340 312 317 303 304 309 328 329 324 319 314 312 310 314 306 298 284 285 287 279 279 279 281 280 276 277 276
314 314 357 14 17 0 332 350 5 21 23 19 10 360 2 351 343 339 335 331 286 315 317 321 323 322 316 314 302 305 306 299 292 287 284 297 290 279 285 287 289 287 276 274 272
314 319 12 36 35 359 353 359 2 20 5 349 347 340 347 345 334 331 331 333 341 334 327 326 327 336 331 322 308 295 299 296 293 294 270 293 288 291 302 303 296 303 281 266 239
323 0 9 19 36 13 357 350 358 2 346 349 345 353 349 338 345 335 336 340 345 350 336 332 328 335 325 319 312 302 299 309 297 294 287 285 288 292 308 305 306 312 317 250 215
337 353 6 25 29 2 354 349 354 351 329 352 345 351 343 339 341 341 341 346 344 349 346 334 324 332 331 322 300 297 303 312 304 295 295 289 292 295 313 307 295 292 303 311 284
347 345 7 32 15 2 351 349 343 335 341 347 349 345 345 344 343 344 342 337 349 348 352 348 341 343 341 335 318 310 289 302 310 290 287 294 297 309 320 325 291 271 271 284 289
355 345 4 17 344 346 338 331 331 333 331 345 347 344 346 345 344 344 346 346 355 358 354 0 358 349 343 337 340 323 307 295 299 295 286 284 287 292 318 315 302 290 282 269 277
352 353 359 358 328 324 327 330 340 334 335 337 340 345 348 347 348 352 347 351 5 7 6 13 6 358 360 12 5 339 324 304 306 308 285 291 289 302 305 291 303 307 298 272 268
8 352 341 345 347 333 324 328 325 333 343 344 339 341 338 339 341 346 347 357 5 11 25 27 19 18 9 1 351 331 309 309 303 301 282 285 288 297 308 310 303 302 299 298 281
12 2 352 327 317 319 319 325 322 329 338 337 334 336 338 341 342 343 347 352 359 22 24 26 10 7 358 350 326 236 290 281 302 292 278 292 290 299 313 306 302 302 305 303 293
4 359 352 332 332 318 320 322 321 318 326 333 332 330 334 340 345 348 353 360 3 9 11 21 11 6 358 333 13 20 316 301 315 323 302 309 308 312 312 314 313 305 300 299 298
7 1 351 340 329 321 320 320 321 313 317 318 322 325 329 334 337 342 348 351 353 357 6 16 20 8 22 21 251 27 314 327 313 315 310 304 314 319 309 306 312 306 299 297 297